sat.trackr.live / text

‹ back to catalog

YAOGAN-40 01C

NORAD 57833 · 2023-139D

PAYLOAD ACTIVE UNKNOWN

§ Identity

Operator
Country
PRC
Launch date
2023-09-10
Launch site
TAISC
Launch vehicle
Mass (kg)
RCS (m²)

External: N2YO · Heavens-Above · Gunter

§ Orbital elements

Epoch: 2026-09-22T23:40:33.834144Z

Period
101.95 min
Inclination
85.9938°
Eccentricity
0.0002698
Mean motion
14.12463151 rev/d
Perigee alt
849.0 km
Apogee alt
852.9 km
Semi-major
7,229.1 km
B*
5.5650e-5
RAAN
215.3322°
Arg perigee
96.2340°
Mean anomaly
263.9151°
Rev number
15,661

§ Raw data

YAOGAN-40 01C1 57833U 23139D   26265.98650271  .00000122  00000+0  55650-4 0  99922 57833  85.9938 215.3322 0002698  96.2340 263.9151 14.12463151156611

JSON: /api/v1/satellites/57833 · /tle

For live sub-satellite position, see the globe view (requires WebGL).

§ Visibility from observer

Set your observer location to see the next 7 days of passes ≥ 10°. The values pass through the URL so the page stays shareable.

No JS? Fill the form by hand. The geolocation button needs JavaScript.